Regional Weather Roundup
Issued by NWS

Home | Current Version | Previous Version | Graphics & Text | Print | Product List | Glossary On
Versions: 1 2 3 4 5 6 7 8 9 10 11 12 13 14 15 16 17 18 19 20 21 22 23 24 25 26 27 28 29 30 31 32 33 34 35 36 37 38 39 40 41 42 43 44 45 46 47 48 49 50
000
ASUS43 KLMK 110710
RWRKY
KENTUCKY REGIONAL WEATHER ROUNDUP
NATIONAL WEATHER SERVICE LOUISVILLE KY
200 AM EST MON DEC 11 2017

NOTE "FAIR" INDICATES FEW OR NO CLOUDS BELOW 12,000 FEET
WITH NO SIGNIFICANT WEATHER AND/OR OBSTRUCTIONS TO VISIBILITY.

KYZ001>023-026-027-061>063-070>075-110800-
WESTERN AND SOUTH CENTRAL KENTUCKY

CITY           SKY/WX    TMP DP  RH WIND       PRES   REMARKS
PADUCAH        CLEAR     29  24  82 CALM      30.14F
HENDERSON      CLEAR     26  24  92 CALM      30.15F
OWENSBORO      CLEAR     29  25  85 CALM      30.14F
HOPKINSVILLE   CLEAR     35  24  64 CALM      30.15S
BOWLING GREEN  CLEAR     34  24  67 SW6       30.16S WCI  29
GLASGOW        PTCLDY    29  23  78 CALM      30.15R
$$

KYZ024-025-028>034-038-045-046-053-110800-
NORTH CENTRAL KENTUCKY

CITY           SKY/WX    TMP DP  RH WIND       PRES   REMARKS
LOUISVILLE/SDF CLEAR     34  24  67 W3        30.12F
LOUISVILLE/LOU CLEAR     31  24  75 SW3       30.13S
FORT KNOX      CLEAR     31  23  71 CALM      30.10F
$$

KYZ035>037-039>044-047>052-055>060-089>105-110800-
NORTHEAST KENTUCKY

CITY           SKY/WX    TMP DP  RH WIND       PRES   REMARKS
LEXINGTON      CLEAR     32  21  64 SW7       30.11R WCI  26
COVINGTON      CLEAR     26  22  84 W7        30.08R WCI  18
FRANKFORT      CLEAR     31  20  63 SW5       30.10S WCI  26
$$

KYZ054-064>069-076>088-106>120-110800-
SOUTHEAST KENTUCKY

CITY           SKY/WX    TMP DP  RH WIND       PRES   REMARKS
JACKSON        CLEAR     36  20  52 VRB5      30.10R WCI  32
LONDON         CLEAR     33  20  58 SW3       30.13S
SOMERSET       CLEAR     34  23  64 S5        30.15S WCI  30
MIDDLESBORO    CLEAR     31  23  72 CALM      30.15S
MONTICELLO     SUNNY     35  24  64 W12       30.16  WCI  27
$$





USA.gov is the U.S. government's official web portal to all federal, state and local government web resources and services.